Tracking 19827 objects as of 21-Aug-2019
HD Live streaming from Space Station
objects crossing your sky now

FLOCK 1E 14


FLOCK 1E 14 is no longer on orbit
FLOCK 1E 14 is classified as:


NORAD ID: 40741
Int'l Code: 1998-067GT
Perigee: N/A
Apogee: N/A
Inclination: N/A
Period: N/A
Semi major axis: N/A
RCS: N/A
Launch date: November 20, 1998
Source: United States (US)
Launch site: TYURATAM MISSILE AND SPACE COMPLEX (TTMTR)
Decay date: 2016-07-31
aabbcc
Your satellite tracking list
Your tracking list is empty




NASA's NSSDC Master Catalog

Two Line Element Set (TLE):
1 40741U 98067GT  16212.79152589  .12874842  12389-4  29159-3 0  9996
2 40741  51.6101 145.0511 0017155 239.5802 120.7977 16.44799109 59891
Source of the keplerian elements: AFSPC